Location: Fort Worth, Tx
(32.7431°N, 97.3695°W)
Time: 13:55:32
(UTC-05:00)

ISS - Visible Passes

Search period start: 14 December 2018 00:00
Search period end: 24 December 2018 00:00
Orbit: 401 x 408 km, 51.6° (Epoch: 15 December)

Date Brightness Start Highest point End Pass type
(mag) Time Alt. Az. Time Alt. Az. Time Alt. Az.
14 Dec -3.9 19:00:58 10° NW 19:04:13 89° SW 19:07:28 10° SE visible
15 Dec -0.5 19:46:39 10° W 19:48:13 13° SW 19:49:48 10° SSW visible
16 Dec -1.4 18:53:24 10° WNW 18:56:14 27° SW 18:59:03 10° S visible
21 Dec -2.2 08:01:05 10° SSW 08:04:10 40° SE 08:07:17 10° ENE visible
22 Dec -0.8 07:09:43 10° S 07:12:04 18° SE 07:14:26 10° E visible
23 Dec -3.8 07:52:50 10° SW 07:56:04 62° NW 07:59:19 10° NE visible
